[[{"header":{"parameterUnit":"m.s-1","parameterCategory":1,"la1":30.2991,"la2":30.254,"lo1":-89.0895,"lo2":-89.0444,"dy":0.0017,"dx":0.0017,"nx":28,"ny":28,"refTime":"2023-06-25T21:00:00:Z","depth":0,"parameterNumber":2,"parameterNumberName":"U-component_of_WINDS"},"data":[0,0,0,0,0,0,0,0,0,0,0,0,0,0,0,0,0,0,0,0,0,0,0,0,0,0,0,0,0,0,0,0,0,0,0,0,0,0,0,0,0,0,0,0,0,0,0,0,0,0,0,0,0,0,0,0,0,0,5.7434,5.7435,0,5.7484,5.7485,5.7486,5.7365,5.7362,5.7358,5.7354,5.7407,5.7412,5.7417,0,0,0,0,0,0,0,0,0,0,0,0,0,5.7235,5.7239,5.7434,5.7435,5.7435,5.7484,5.7485,5.7486,5.7366,5.7361,5.7357,5.7352,5.7405,5.7411,5.7417,0,0,0,0,0,0,0,0,0,0,0,0,0,5.7307,5.724,5.7434,5.7382,5.7377,5.7484,5.7485,5.7486,5.7367,5.7361,5.7356,5.735,5.7403,5.7411,5.7418,5.7578,0,0,5.7441,5.7444,0,0,0,0,0,0,0,0,5.7303,5.7314,5.7389,5.7385,5.7381,5.7413,5.7434,5.7517,5.7368,5.7371,5.7354,5.7347,5.7414,5.742,5.7442,5.7581,5.7583,5.7441,5.7446,5.7449,5.7451,0,0,0,0,0,0,0,5.7298,5.7312,5.7454,5.739,5.7385,5.7356,5.736,5.7449,5.7424,5.737,5.7362,5.7369,5.741,5.7435,5.7442,5.7584,5.7441,5.7448,5.7452,5.7455,5.7855,5.786,0,0,0,0,0,0,5.73,5.7308,5.7452,5.7456,5.7327,5.7364,5.7368,5.7408,5.7422,5.7419,5.7374,5.7364,5.7425,5.7434,5.7444,5.763,5.7449,5.7456,5.746,5.7848,5.7856,5.7863,0,0,0,0,0,0,5.7296,5.7314,5.745,5.738,5.7395,5.7373,5.7419,5.7412,5.7437,5.7425,5.742,5.7404,5.7421,5.7433,5.7545,5.763,5.7459,5.7466,5.7841,5.7851,5.7859,5.8006,0,0,0,0,0,0,5.7291,5.7313,5.7374,5.7382,5.7399,5.7552,5.7425,5.7417,5.745,5.7436,5.7452,5.7449,5.7417,5.7535,5.7552,5.7637,5.7472,5.7833,5.7845,5.7856,5.7994,5.8019,5.8041,0,0,0,0,0,5.7284,5.7414,5.7378,5.7396,5.7474,5.7557,5.7566,5.7527,5.7457,5.7518,5.751,5.7448,5.7619,5.7547,5.7566,5.7655,5.7828,5.7842,5.7855,5.7983,5.8014,5.8041,0,0,0,0,0,0,5.7417,5.7414,5.7374,5.751,5.7535,5.7536,5.7611,5.7562,5.7607,5.7592,5.7542,5.7547,5.7668,5.7673,5.7593,5.781,5.7711,5.773,5.7802,5.7831,5.7855,5.785,5.7478,0,0,0,0,0,5.7462,5.7529,5.7523,5.7644,5.7658,5.7633,5.7668,5.7635,5.7658,5.7668,5.7669,5.7694,5.7753,5.7793,5.7846,5.7994,5.7995,5.8065,5.8089,5.8108,5.8124,5.82,5.8231,5.7908,5.7908,5.7908,0,0,5.7556,5.7563,5.7608,5.7671,5.7686,5.7756,5.7643,5.7722,5.7773,5.768,5.7785,5.7787,5.7812,5.7942,5.7999,5.795,5.8214,5.8126,5.8142,5.8147,5.8218,5.8248,5.8276,5.7917,5.7916,5.7914,0,0,5.7763,5.7776,5.7876,5.7894,5.7918,5.79,5.7925,5.7934,5.7931,5.8036,5.7967,5.8028,5.8131,5.815,5.8174,5.8388,5.8332,5.8407,5.8531,5.8606,5.8631,5.8654,5.8728,5.8755,5.8423,5.8424,5.8424,0,5.7876,5.7979,5.7935,5.8018,5.8047,5.7966,5.8068,5.8087,5.8128,5.8149,5.8093,5.822,5.8231,5.8363,5.8415,5.8438,5.8463,5.8404,5.8631,5.8653,5.8673,5.8743,5.8772,5.8432,5.8431,5.843,5.843,0,5.8117,5.8189,5.8268,5.8308,5.8346,5.8439,5.8408,5.8452,5.8416,5.8405,5.8512,5.8522,5.8576,5.8605,5.8572,5.8733,5.8701,5.864,5.8539,5.8714,5.8778,5.8805,5.8445,5.8442,5.8439,5.8437,0,0,5.8407,5.8421,5.8451,5.8467,5.8488,5.8543,5.8632,5.8683,5.8721,5.8752,5.8824,5.8913,5.8855,5.8882,5.8851,5.8917,5.9083,5.8846,5.8846,5.8888,5.9258,5.9303,5.9335,5.9047,5.9052,5.9056,5.9255,0,5.8609,5.876,5.8723,5.8872,5.8938,5.8862,5.8939,5.8959,5.8951,5.9005,5.8996,5.9059,5.8979,5.8995,5.9057,5.905,5.9156,5.9035,5.9112,5.9115,5.9105,5.9369,5.9417,5.9605,5.9281,5.9285,5.9288,0,5.8865,5.8904,5.9061,5.9069,5.9095,5.9165,5.9208,5.9261,5.9283,5.9272,5.9303,5.9257,5.9344,5.9245,5.9363,5.9281,5.931,5.9312,5.9318,5.9322,5.9211,5.9378,5.9664,5.9691,5.9328,5.9325,5.9322,0,5.9058,5.9151,5.9255,5.9272,5.9286,5.9336,5.9344,5.936,5.9393,5.9432,5.9452,5.9501,5.9528,5.9566,5.9535,5.9466,5.9657,5.9556,5.9649,5.965,5.9691,5.9689,5.9984,5.9715,5.9715,5.9714,5.9714,0,5.9286,5.9384,5.9342,5.9406,5.9513,5.947,5.9577,5.9576,5.9592,5.9654,5.9592,5.9652,5.9608,5.9665,5.9641,5.9741,5.9754,5.9747,5.9739,5.9751,5.9752,5.9768,5.9753,5.9722,5.972,5.9718,5.9717,0,5.9519,5.9495,5.9604,5.9607,5.961,5.9689,5.9692,5.9751,5.9738,5.9818,5.9834,5.9814,5.9877,5.985,5.9917,5.9901,6.0028,6.0004,6.002,6.0013,6.0107,6.0098,6.0421,6.046,6.0169,6.0172,6.0174,0,5.9664,5.9738,5.9749,5.9786,5.9798,5.9859,5.9892,5.9852,5.9889,5.9919,5.9975,6.0032,6.0075,6.0179,6.017,6.022,6.0196,6.0306,6.0203,6.0212,6.0194,6.0189,6.0195,6.0325,6.0329,6.0332,6.0334,0,5.9925,5.9909,5.9959,6.0005,6.0046,6.0081,6.011,6.0144,6.0106,6.015,6.0213,6.0247,6.0314,6.0371,6.0415,6.0423,6.0372,6.0367,6.039,6.0402,6.0407,6.0403,6.0074,6.0359,6.0356,6.0355,6.0353,6.0352,6.0117,6.0177,6.0194,6.0252,6.0269,6.0298,6.0353,6.0347,6.0399,6.045,6.0424,6.0497,6.0516,6.0569,6.0584,6.064,6.0597,6.0632,6.064,6.0649,6.066,6.0401,6.0648,6.0648,6.0647,6.0646,6.0646,0,6.0371,6.0378,6.0432,6.0474,6.0519,6.0468,6.0497,6.0538,6.0603,6.0625,6.0669,6.074,6.0795,6.0791,6.0841,6.0887,6.0864,6.0901,6.0896,6.0898,6.0697,6.067,6.0918,6.0918,6.0918,6.0918,6.0918,6.0918,6.0509,6.0608,6.0595,6.0702,6.0709,6.0779,6.08,6.0826,6.0843,6.0925,6.097,6.0967,6.0978,6.1029,6.1077,6.1074,6.1094,6.1139,6.1127,6.094,6.0912,6.0887,6.0861,6.1144,6.1145,6.1323,6.1324,6.1326]},{"header":{"parameterUnit":"m.s-1","parameterCategory":1,"la1":30.2991,"la2":30.254,"lo1":-89.0895,"lo2":-89.0444,"dy":0.0017,"dx":0.0017,"nx":28,"ny":28,"refTime":"2023-06-25T21:00:00:Z","depth":0,"parameterNumber":3,"parameterNumberName":"V-component_of_WINDS"},"data":[0,0,0,0,0,0,0,0,0,0,0,0,0,0,0,0,0,0,0,0,0,0,0,0,0,0,0,0,0,0,0,0,0,0,0,0,0,0,0,0,0,0,0,0,0,0,0,0,0,0,0,0,0,0,0,0,0,0,3.9522,3.9524,0,3.9684,3.9686,3.9688,3.9698,3.9696,3.9694,3.9693,3.986,3.9866,3.9872,0,0,0,0,0,0,0,0,0,0,0,0,0,3.9221,3.9226,3.9522,3.9524,3.9526,3.9684,3.9686,3.9689,3.9698,3.9696,3.9694,3.9692,3.9858,3.9865,3.9872,0,0,0,0,0,0,0,0,0,0,0,0,0,3.9364,3.9228,3.9522,3.955,3.9554,3.9684,3.9686,3.9689,3.9699,3.9696,3.9693,3.9691,3.9855,3.9864,3.9873,3.9986,0,0,3.9902,3.9906,0,0,0,0,0,0,0,0,3.9356,3.9375,3.9544,3.9548,3.9553,3.9668,3.9641,3.9789,3.97,3.9644,3.9693,3.9689,3.9798,3.9812,3.9849,3.9994,4.0001,3.9903,3.9908,3.9912,3.9915,0,0,0,0,0,0,0,3.9346,3.9368,3.9586,3.9546,3.9552,3.9555,3.9572,3.9669,3.9735,3.9649,3.965,3.9669,3.98,3.984,3.9853,4.0003,3.9902,3.9911,3.9916,3.992,4.0247,4.025,0,0,0,0,0,0,3.933,3.936,3.9581,3.9591,3.9446,3.9562,3.9582,3.9634,3.9734,3.9746,3.9671,3.9669,3.9825,3.9842,3.9859,3.9996,3.9912,3.9921,3.9926,4.0244,4.0248,4.0251,0,0,0,0,0,0,3.9324,3.935,3.9575,3.9476,3.9505,3.957,3.9629,3.9639,3.9678,3.9751,3.9762,3.9699,3.9824,3.9846,3.9954,4.0002,3.9925,3.9933,4.024,4.0245,4.0249,4.0272,0,0,0,0,0,0,3.9315,3.9348,3.9391,3.9477,3.951,3.9667,3.9632,3.9644,3.9694,3.9692,3.978,3.9792,3.9823,3.994,3.9963,4.0013,3.9941,4.0236,4.0242,4.0248,4.0267,4.0276,4.0285,0,0,0,0,0,3.9304,3.9392,3.9394,3.942,3.9566,3.967,3.9689,3.9723,3.9698,3.9742,3.9788,3.9789,3.9992,3.9951,3.9977,4.0031,4.0233,4.0241,4.0247,4.0263,4.0275,4.0284,0,0,0,0,0,0,3.9312,3.9404,3.9407,3.9524,3.9589,3.9672,3.9729,3.9735,3.9808,3.9804,3.9843,3.9863,3.9969,4.0011,3.9963,4.0144,4.011,4.0123,4.0113,4.0125,4.0133,4.0121,3.9948,0,0,0,0,0,3.9327,3.9403,3.948,3.9576,3.9609,3.9663,3.971,3.973,3.9799,3.9827,3.9881,3.9948,4.0026,4.0078,4.0155,4.0272,4.0291,4.0322,4.0331,4.0338,4.0348,4.0412,4.0427,4.0274,4.0274,4.0274,0,0,3.9359,3.9419,3.9465,3.9579,3.9632,3.971,3.9686,3.9771,3.9829,3.984,3.9945,3.9986,4.0064,4.0177,4.0229,4.0215,4.0394,4.0347,4.0352,4.0359,4.0421,4.0435,4.0448,4.0279,4.0278,4.0277,0,0,3.9458,3.9511,3.9596,3.9649,3.9729,3.9764,3.9784,3.9866,3.9894,4.0,4.0008,4.0078,4.0214,4.0268,4.0313,4.043,4.0433,4.0454,4.05,4.0562,4.0574,4.0585,4.0626,4.064,4.0464,4.0464,4.0464,0,3.9488,3.9607,3.964,3.9724,3.9773,3.9785,3.9871,3.9921,4.0022,4.0055,4.0037,4.0206,4.0259,4.0384,4.0412,4.0449,4.0473,4.0444,4.057,4.0581,4.0592,4.0631,4.0646,4.0466,4.0466,4.0465,4.0465,0,3.9639,3.9721,3.9781,3.9876,3.9932,4.0017,4.0063,4.0115,4.013,4.0167,4.0274,4.0337,4.0426,4.0457,4.0473,4.0584,4.0573,4.0562,4.0529,4.0607,4.0645,4.066,4.0469,4.0468,4.0467,4.0467,0,0,3.9749,3.986,3.9881,3.9924,4.0012,4.0076,4.016,4.0246,4.029,4.0359,4.043,4.0543,4.0533,4.0585,4.0606,4.0661,4.0747,4.0643,4.0645,4.066,4.0873,4.088,4.0897,4.075,4.0753,4.0755,4.0866,0,3.9857,4.0007,4.0039,4.0169,4.0244,4.0255,4.0329,4.039,4.0427,4.0495,4.0535,4.0615,4.0596,4.0626,4.0681,4.0725,4.0791,4.0718,4.0816,4.0819,4.0797,4.0917,4.0926,4.1027,4.0881,4.0883,4.0885,0,4.0003,4.0074,4.0211,4.0287,4.032,4.0386,4.0466,4.0532,4.0601,4.0624,4.068,4.0695,4.0783,4.0745,4.0866,4.0815,4.0857,4.0885,4.089,4.0901,4.0857,4.093,4.1061,4.1076,4.0909,4.0907,4.0905,0,4.0068,4.0198,4.0296,4.0333,4.0424,4.047,4.051,4.0576,4.0626,4.0696,4.0728,4.0808,4.0851,4.0913,4.0949,4.0918,4.1066,4.1032,4.1087,4.1086,4.1118,4.1116,4.1256,4.1145,4.1145,4.1145,4.1144,0,4.0186,4.0269,4.0327,4.0387,4.048,4.0515,4.0607,4.0646,4.0705,4.0773,4.0788,4.0852,4.0895,4.0965,4.0994,4.1089,4.1108,4.1129,4.1135,4.1127,4.1125,4.1156,4.1149,4.1149,4.1148,4.1147,4.1146,0,4.0274,4.0316,4.0424,4.0501,4.0522,4.0587,4.0653,4.0712,4.0747,4.0833,4.0856,4.0912,4.0994,4.1036,4.1139,4.1158,4.1265,4.1267,4.1241,4.1244,4.1296,4.129,4.1462,4.1486,4.1359,4.136,4.1361,0,4.0346,4.041,4.0494,4.054,4.0581,4.0656,4.0705,4.0741,4.0793,4.0875,4.0924,4.1007,4.1075,4.1206,4.1256,4.1334,4.1339,4.1393,4.1351,4.134,4.1339,4.1334,4.134,4.1401,4.1402,4.1403,4.1404,0,4.0469,4.0486,4.0558,4.0636,4.0694,4.0758,4.082,4.0857,4.0903,4.096,4.1044,4.1097,4.1201,4.1283,4.1365,4.1406,4.1412,4.1417,4.1433,4.1426,4.1408,4.1418,4.1261,4.1413,4.1412,4.1411,4.1411,4.141,4.0552,4.0609,4.0675,4.0754,4.0804,4.0862,4.092,4.0962,4.1033,4.112,4.1137,4.1226,4.1292,4.1402,4.1446,4.1515,4.1503,4.1528,4.1534,4.154,4.1542,4.1397,4.153,4.153,4.153,4.153,4.153,0,4.0675,4.0718,4.079,4.0876,4.0937,4.0937,4.1006,4.1057,4.1135,4.1195,4.1262,4.1357,4.1436,4.1492,4.1572,4.1617,4.1622,4.1636,4.1633,4.1643,4.1548,4.1525,4.1631,4.1631,4.1631,4.1631,4.1631,4.1631,4.0746,4.0842,4.0867,4.0987,4.103,4.1117,4.1156,4.1208,4.1257,4.1363,4.1428,4.1463,4.1522,4.1606,4.1678,4.1692,4.1721,4.1735,4.1749,4.166,4.1649,4.1639,4.1618,4.1741,4.1741,4.1838,4.1839,4.184]}]]